Rogers City, MI

8:13 PM EST on February 10, 2016 (GMT -0500)
Presque Isle County

Weather History for KPZQ - November, 2013

Change the Weather History Date:

Saturday, November 9, 2013

  Actual Average (KAPN) Record (KAPN)
Temperature  
Mean Temperature 42 °F 38 °F  
Max Temperature 49 °F 46 °F 75 °F (1999)
Min Temperature 34 °F 30 °F 13 °F (2003)
Degree Days  
Heating Degree Days 24 27  
Month to date heating degree days 231  
Since 1 July heating degree days 1175  
Moisture  
Dew Point 37 °F    
Average Humidity 84    
Maximum Humidity 92    
Minimum Humidity 71    
Precipitation  
Precipitation 0.00 in 0.07 in 1.58 in (2000)
Month to date precipitation 0.65  
Year to date precipitation 24.96  
Snow  
Snow 0.00 in 0.20 in 4.80 in (1985)
Month to date snowfall 1.2  
Since 1 July snowfall 1.6  
Snow Depth -    
Sea Level Pressure  
Sea Level Pressure 29.78 in    
Wind  
Wind Speed 10 mph (SSW)    
Max Wind Speed 17 mph    
Max Gust Speed 25 mph    
Visibility 8 miles    
Events Rain , Snow    
T = Trace of Precipitation, MM = Missing Value Source: NWS Daily Summary

Daily Weather History Graph

Daily Weather History Graph

Search for Another Location

Airport or City:

Trip Planner

Search our weather history database for the weather conditions in past years. The results will help you decide how hot, cold, wet, or windy it might be!

Date:

Astronomy

Nov. 09, 2013 Rise Set
Actual Time 7:26 AM EST 5:11 PM EST
Civil Twilight 6:54 AM EST 5:43 PM EST
Nautical Twilight 6:19 AM EST 6:18 PM EST
Astronomical Twilight 5:44 AM EST 6:53 PM EST
Moon 12:59 PM EST (11/9) 11:44 PM EST (11/9)
Length of Visible Light 10h 48m
Length of Day
9h 45m
Waxing Crescent, 44% of the Moon is Illuminated
Nov 9
Waxing Crescent
Nov 10
First Quarter
Nov 17
Full
Nov 25
Last Quarter
Dec 2
New

Hourly Weather History & Observations

Time (EST) Temp. Windchill Dew Point Humidity Pressure Visibility Wind Dir Wind Speed Gust Speed Precip Events Conditions
12:14 AM 35.8 °F 29.4 °F 28.9 °F 76% 30.10 in 10.0 mi SSE 8.1 mph - N/A   Overcast
12:35 AM 36.1 °F 30.6 °F 28.8 °F 75% 30.09 in 10.0 mi SSE 6.9 mph - N/A   Overcast
12:55 AM 36.7 °F 29.9 °F 28.2 °F 71% 30.09 in 10.0 mi South 9.2 mph - N/A   Overcast
1:14 AM 36.5 °F 30.3 °F 28.4 °F 72% 30.08 in 10.0 mi SSE 8.1 mph - N/A   Overcast
1:35 AM 36.5 °F 31.8 °F 28.4 °F 72% 30.08 in 10.0 mi South 5.8 mph - N/A   Overcast
1:55 AM 36.1 °F 31.4 °F 28.6 °F 74% 30.07 in 10.0 mi South 5.8 mph - N/A   Overcast
2:15 AM 36.0 °F 31.1 °F 28.9 °F 76% 30.07 in 10.0 mi South 5.8 mph - N/A   Overcast
2:35 AM 35.1 °F 30.1 °F 30.0 °F 82% 30.06 in 4.0 mi SSE 5.8 mph - N/A Snow Light Snow
2:54 AM 34.7 °F 28.8 °F 31.1 °F 87% 30.04 in 7.0 mi SE 6.9 mph - N/A   Overcast
3:15 AM 34.3 °F 27.7 °F 31.6 °F 90% 30.02 in 10.0 mi SE 8.1 mph - N/A   Overcast
3:34 AM 34.3 °F 27.7 °F 31.8 °F 90% 30.01 in 10.0 mi SE 8.1 mph - N/A   Overcast
3:55 AM 35.1 °F 27.9 °F 32.0 °F 89% 30.01 in 10.0 mi SSE 9.2 mph - N/A   Overcast
4:15 AM 35.6 °F 28.0 °F 32.0 °F 87% 29.97 in 10.0 mi SE 10.4 mph - N/A   Overcast
4:34 AM 36.0 °F 28.0 °F 32.0 °F 86% 29.94 in 10.0 mi SE 11.5 mph - N/A   Overcast
4:55 AM 36.7 °F 28.4 °F 32.4 °F 84% 29.93 in 10.0 mi SE 12.7 mph 18.4 mph N/A   Overcast
5:15 AM 38.3 °F 30.1 °F 32.9 °F 81% 29.91 in 10.0 mi SE 13.8 mph 21.9 mph N/A   Overcast
5:34 AM 38.8 °F 31.6 °F 33.1 °F 80% 29.89 in 10.0 mi SSE 11.5 mph - N/A   Overcast
5:55 AM 39.6 °F 33.0 °F 33.3 °F 78% 29.88 in 10.0 mi SSE 10.4 mph - N/A Rain Light Rain
6:15 AM 39.2 °F 30.5 °F 34.2 °F 82% 29.87 in 7.0 mi SSE 16.1 mph 21.9 mph N/A Rain Rain
6:34 AM 38.5 °F 30.3 °F 34.7 °F 86% 29.85 in 5.0 mi SSE 13.8 mph 21.9 mph N/A Rain Rain
6:55 AM 37.6 °F 28.1 °F 34.7 °F 89% 29.85 in 4.0 mi SSE 17.3 mph 24.2 mph N/A Rain Rain
7:15 AM 37.0 °F 27.7 °F 34.5 °F 91% 29.84 in 3.0 mi SE 16.1 mph 25.3 mph N/A Rain Rain
7:35 AM 37.0 °F 27.7 °F 34.7 °F 91% 29.83 in 4.0 mi SSE 16.1 mph 21.9 mph N/A Rain Rain
7:55 AM 37.2 °F 28.3 °F 34.9 °F 91% 29.82 in 4.0 mi SSE 15.0 mph 20.7 mph N/A Rain Rain
8:14 AM 37.4 °F 28.9 °F 35.1 °F 91% 29.81 in 4.0 mi SSE 13.8 mph 19.6 mph N/A Rain Light Rain
8:35 AM 37.9 °F 29.6 °F 35.8 °F 92% 29.79 in 5.0 mi SSE 13.8 mph 18.4 mph N/A Rain Light Rain
8:54 AM 38.5 °F 30.3 °F 36.1 °F 91% 29.78 in 7.0 mi SSE 13.8 mph 17.3 mph N/A   Overcast
9:15 AM 38.7 °F 30.5 °F 36.1 °F 91% 29.76 in 7.0 mi SSE 13.8 mph 19.6 mph N/A Rain Light Rain
9:35 AM 39.2 °F 32.0 °F 36.5 °F 90% 29.75 in 7.0 mi South 11.5 mph - N/A   Overcast
9:54 AM 39.4 °F 31.4 °F 36.5 °F 89% 29.74 in 7.0 mi South 13.8 mph 17.3 mph N/A   Overcast
10:15 AM 40.1 °F 32.7 °F 36.9 °F 88% 29.72 in 7.0 mi South 12.7 mph 18.4 mph N/A   Overcast
10:35 AM 40.8 °F 32.9 °F 36.9 °F 86% 29.71 in 7.0 mi South 15.0 mph 21.9 mph N/A   Overcast
10:54 AM 41.0 °F 34.7 °F 36.9 °F 85% 29.70 in 7.0 mi South 10.4 mph 19.6 mph N/A   Overcast
11:15 AM 42.4 °F 35.3 °F 37.6 °F 83% 29.69 in 10.0 mi South 13.8 mph 18.4 mph N/A   Mostly Cloudy
11:35 AM 42.8 °F 35.8 °F 37.4 °F 81% 29.68 in 10.0 mi South 13.8 mph 19.6 mph N/A   Overcast
11:54 AM 43.9 °F 37.2 °F 38.3 °F 81% 29.68 in 10.0 mi South 13.8 mph 18.4 mph N/A   Overcast
12:15 PM 44.8 °F 39.4 °F 38.8 °F 80% 29.66 in 10.0 mi South 10.4 mph 16.1 mph N/A   Overcast
12:34 PM 45.1 °F 40.8 °F 39.2 °F 80% 29.66 in 10.0 mi SSW 8.1 mph - N/A   Overcast
12:55 PM 46.4 °F 41.1 °F 39.9 °F 78% 29.65 in 10.0 mi South 11.5 mph 16.1 mph N/A   Overcast
1:14 PM 46.4 °F 41.1 °F 40.1 °F 79% 29.65 in 10.0 mi SSW 11.5 mph 16.1 mph N/A   Overcast
1:35 PM 46.9 °F - 40.5 °F 78% 29.64 in 10.0 mi South 8.1 mph - N/A   Overcast
1:55 PM 47.5 °F - 41.0 °F 78% 29.64 in 10.0 mi SSW 11.5 mph - N/A   Overcast
2:15 PM 48.4 °F - 41.9 °F 78% 29.63 in 10.0 mi SW 9.2 mph 16.1 mph N/A   Overcast
2:35 PM 48.4 °F - 41.9 °F 78% 29.62 in 10.0 mi SW 15.0 mph 19.6 mph N/A   Overcast
2:54 PM 48.2 °F - 42.4 °F 80% 29.62 in 10.0 mi SW 9.2 mph - N/A   Overcast
3:15 PM 49.1 °F - 42.8 °F 79% 29.62 in 10.0 mi SW 13.8 mph 20.7 mph N/A   Overcast
3:35 PM 48.9 °F - 43.0 °F 80% 29.63 in 10.0 mi SW 12.7 mph 24.2 mph N/A   Overcast
3:54 PM 47.7 °F - 43.3 °F 85% 29.64 in 4.0 mi SW 11.5 mph 20.7 mph N/A   Haze
4:15 PM 46.4 °F 41.5 °F 43.3 °F 89% 29.64 in 2.5 mi SW 10.4 mph 16.1 mph N/A Rain Light Rain
4:35 PM 46.4 °F 40.4 °F 43.3 °F 89% 29.64 in 5.0 mi SW 13.8 mph 18.4 mph N/A   Drizzle
4:54 PM 45.9 °F 41.7 °F 43.3 °F 91% 29.65 in 3.0 mi WSW 8.1 mph - N/A Rain Light Rain
5:15 PM 45.5 °F 40.3 °F 43.2 °F 92% 29.65 in 7.0 mi WSW 10.4 mph 17.3 mph N/A   Light Drizzle
5:34 PM 45.3 °F 40.6 °F 42.8 °F 91% 29.66 in 10.0 mi WSW 9.2 mph 17.3 mph N/A   Drizzle
5:55 PM 45.0 °F 39.3 °F 42.1 °F 90% 29.67 in 10.0 mi West 11.5 mph 18.4 mph N/A Rain Rain
6:15 PM 44.1 °F 38.1 °F 41.0 °F 89% 29.68 in 7.0 mi West 11.5 mph 20.7 mph N/A   Drizzle
6:34 PM 43.7 °F 36.3 °F 40.5 °F 88% 29.68 in 10.0 mi West 16.1 mph 24.2 mph N/A Rain Light Rain
6:55 PM 43.2 °F 37.4 °F 40.1 °F 89% 29.69 in 10.0 mi West 10.4 mph 17.3 mph N/A   Light Drizzle
7:15 PM 42.8 °F 37.0 °F 39.4 °F 88% 29.70 in 10.0 mi West 10.4 mph 19.6 mph N/A   Light Drizzle
7:34 PM 42.3 °F 35.1 °F 39.2 °F 89% 29.71 in 10.0 mi West 13.8 mph 19.6 mph N/A   Overcast
7:55 PM 42.1 °F 34.5 °F 38.7 °F 88% 29.71 in 10.0 mi West 15.0 mph 19.6 mph N/A   Overcast
8:15 PM 41.9 °F 35.9 °F 38.1 °F 86% 29.72 in 10.0 mi West 10.4 mph 18.4 mph N/A   Overcast
8:35 PM 41.2 °F 34.5 °F 37.6 °F 87% 29.72 in 10.0 mi West 11.5 mph 18.4 mph N/A   Overcast
8:55 PM 41.0 °F 34.7 °F 37.4 °F 87% 29.72 in 10.0 mi WSW 10.4 mph - N/A   Overcast
9:15 PM 40.6 °F 34.3 °F 37.4 °F 88% 29.72 in 10.0 mi West 10.4 mph 17.3 mph N/A Rain Light Rain
9:35 PM 40.6 °F 34.8 °F 37.0 °F 87% 29.72 in 10.0 mi West 9.2 mph 18.4 mph N/A Rain Light Rain
9:54 PM 41.0 °F 34.7 °F 36.9 °F 85% 29.73 in 10.0 mi West 10.4 mph 21.9 mph N/A   Overcast
10:15 PM 40.6 °F 34.8 °F 36.7 °F 86% 29.72 in 10.0 mi WSW 9.2 mph - N/A   Overcast
10:35 PM 40.6 °F 33.4 °F 36.7 °F 86% 29.72 in 10.0 mi WSW 12.7 mph 18.4 mph N/A   Overcast
10:54 PM 40.6 °F 34.3 °F 36.5 °F 85% 29.72 in 10.0 mi WSW 10.4 mph 17.3 mph N/A   Overcast
11:15 PM 41.0 °F 35.2 °F 36.0 °F 82% 29.72 in 10.0 mi WSW 9.2 mph 17.3 mph N/A   Overcast
11:35 PM 40.6 °F 34.3 °F 36.1 °F 84% 29.72 in 10.0 mi WSW 10.4 mph - N/A   Overcast
11:54 PM 40.5 °F 33.6 °F 36.5 °F 86% 29.72 in 10.0 mi SW 11.5 mph 17.3 mph N/A   Overcast